METEOR 2-17 DEB, 31398

Orbit data source: Space-Track

METEOR 2-17 DEB, 31398 is space debris in LEO originally from a launch on Sat, 30 Jan 1988 UTC launched from the Plesetsk Missile And Space Complex (PKMTR). Debris objects in space refer to the collection of defunct objects orbiting the Earth. Examples of debris include non-operational satellites, rocket bodies, and fragments generated from explosions, collisions, or faulty payload assembly.

Loading next visibility...
Identifier
31398, 1988-005T
Orbit
LEO
Country
Flag of CISCIS
Related business
Manufacturer
Unknown
Mission
Spacecraft
Bus & Motor
Unknown
Mass
Unknown
Launch date (UTC)
1988-01-30 (38 years ago)
Launch vehicle
Unknown
Launch site
Plesetsk Missile And Space Complex (PKMTR)
Object type
Payload
Rocket body
Debris
Shape & HBR
Unknown shape, 0.1 m
Radar Cross Section
Small (<0.1 m²)

Expand to show TLE details & history
Last TLE update: 10 hours ago

TLE from 10 hours ago
0 METEOR 2-17 DEB
1 31398U 88005T   25352.48335945  .00002161  00000-0  13966-2 0  9990
2 31398  82.5351  59.5115 0017993  39.5308 320.7171 14.02367324633525
Epoch: 2025-12-18T11:36Z
TLE epoch observation values (Epoch: 2025-12-18T11:36:02.256Z)
Latitude
-0°
Longitude
158.16388°
Altitude
878.427 km
Speed
7.418 km/s
True Right ascension
03h 58m 02s
True Declination
0° 00' 00"
Sunlit
Object was in full shadow at epoch
Visualization orbit readout
Latitude
Unknown
Longitude
Unknown
Altitude
Unknown
Speed
Unknown
Apparent Right ascension
Unknown
Apparent Declination
Unknown
Sunlit
N/A
Visualization observer readout
Local Sidereal Time
20:37:41
Azimuth
Unknown
Elevation
Unknown
Doppler factor
Unknown
Orbital elements
Apogee altitude
895.801 km
Perigee altitude
869.672 km
Semi-major axis
7,260.873 km
Eccentricity
0.0018
Inclination
82.5351°
RAAN
59.5115°
Arg. of periapsis
39.5308°
True anomaly
320.58633°
Mean anomaly
320.7171°
Eccentric anomaly
320.65174°
Mean motion
3.508 °/min
Orbital period
102.62 mins
BSTAR
0.0013966
Loading maneuver chart data...
Computing Atmospheric mass density...
Loading historical data...
Loading historical data...
Loading historical data...
Loading historical data...
Loading historical data...
Loading historical data...
Loading historical data...

Documentation

Showing up to 5 results
|